Location: Berlin
(38.3226°N, 75.2177°W)
Time: 16:14:21
(UTC+00:00)

Cosmos 2322 Rocket - Pass Details

Date: 26 October 2020
Orbit: 832 x 851 km, 71.0° (Epoch: 25 November)

Event Time Altitude Azimuth Distance (km) Brightness Sun altitude
Rises 10:44:16 0° 347° (NNW) 3,417 5.1 -7.9°
Reaches altitude 10° 10:47:04 10° 358° (N) 2,476 4.5 -7.4°
Maximum altitude 10:51:58 29° 58° (ENE) 1,504 4.1 -6.4°
Drops below altitude 10° 10:56:48 10° 118° (ESE) 2,453 6.2 -5.5°
Sets 10:59:33 0° 129° (SE) 3,381 6.6 -5.0°
